EN

Hourly Weather Brodki

Today, 20 April, Tuesday

Time Temperature Precipitation Wind Pressure Humidity
00:00 +8°C° 0.1 mm 2 mps 754 mmHg 86%
01:00 +8°C° 0.1 mm 1 mps 753 mmHg 87%
02:00 +8°C° 0 mm 1 mps 753 mmHg 86%
03:00 +8°C° 0 mm 1 mps 753 mmHg 86%
04:00 +8°C° 0 mm 1 mps 753 mmHg 86%
05:00 +9°C° 0 mm 1 mps 753 mmHg 84%
06:00 +10°C° 0 mm 1 mps 753 mmHg 81%
07:00 +11°C° 0 mm 1 mps 753 mmHg 79%
08:00 +12°C° 0.1 mm 1 mps 753 mmHg 72%
09:00 +14°C° 0.1 mm 1 mps 753 mmHg 66%
10:00 +15°C° 0.1 mm 1 mps 753 mmHg 60%
11:00 +16°C° 0.3 mm 1 mps 753 mmHg 56%
12:00 +16°C° 0.3 mm 2 mps 752 mmHg 52%
13:00 +17°C° 0.3 mm 2 mps 752 mmHg 49%
14:00 +17°C° 0.1 mm 2 mps 752 mmHg 50%
15:00 +17°C° 0.1 mm 2 mps 751 mmHg 50%
16:00 +17°C° 0.1 mm 2 mps 751 mmHg 51%
17:00 +15°C° 0.1 mm 2 mps 751 mmHg 57%
18:00 +14°C° 0.1 mm 2 mps 751 mmHg 62%
19:00 +12°C° 0.1 mm 2 mps 751 mmHg 68%
20:00 +10°C° 0 mm 2 mps 751 mmHg 72%
21:00 +9°C° 0 mm 2 mps 751 mmHg 76%
22:00 +8°C° 0 mm 2 mps 751 mmHg 79%
23:00 +8°C° 0 mm 2 mps 751 mmHg 82%

Tomorrow, 21 April, Wednesday

Time Temperature Precipitation Wind Pressure Humidity
00:00 +7°C° 0 mm 2 mps 751 mmHg 85%
01:00 +7°C° 0 mm 2 mps 751 mmHg 88%
02:00 +5°C° 0 mm 3 mps 750 mmHg 89%
03:00 +5°C° 0 mm 3 mps 750 mmHg 90%
04:00 +4°C° 0 mm 3 mps 750 mmHg 91%
05:00 +5°C° 0 mm 3 mps 750 mmHg 86%
06:00 +7°C° 0 mm 3 mps 751 mmHg 81%
07:00 +8°C° 0 mm 3 mps 751 mmHg 77%
08:00 +9°C° 0 mm 3 mps 751 mmHg 70%
09:00 +11°C° 0 mm 3 mps 751 mmHg 63%
10:00 +13°C° 0 mm 3 mps 751 mmHg 56%
11:00 +14°C° 0 mm 3 mps 750 mmHg 51%
12:00 +14°C° 0 mm 4 mps 750 mmHg 46%
13:00 +15°C° 0 mm 4 mps 750 mmHg 41%
14:00 +15°C° 0 mm 4 mps 750 mmHg 44%
15:00 +14°C° 0 mm 4 mps 749 mmHg 47%
16:00 +14°C° 0 mm 3 mps 749 mmHg 50%
17:00 +13°C° 0 mm 4 mps 749 mmHg 55%
18:00 +12°C° 0 mm 4 mps 749 mmHg 60%
19:00 +11°C° 0 mm 4 mps 749 mmHg 65%
20:00 +8°C° 0 mm 4 mps 750 mmHg 71%
21:00 +6°C° 0 mm 4 mps 750 mmHg 78%
22:00 +5°C° 0 mm 4 mps 751 mmHg 85%
23:00 +4°C° 0 mm 4 mps 751 mmHg 83%

Day after tomorrow, 22 April, Thursday

Time Temperature Precipitation Wind Pressure Humidity
00:00 +4°C° 0 mm 4 mps 751 mmHg 82%
01:00 +3°C° 0 mm 4 mps 751 mmHg 81%
02:00 +3°C° 0 mm 4 mps 751 mmHg 80%
03:00 +1°C° 0 mm 5 mps 751 mmHg 80%
04:00 0°C° 0 mm 5 mps 751 mmHg 79%
05:00 -1°C° 0 mm 6 mps 751 mmHg 77%
06:00 +1°C° 0 mm 6 mps 751 mmHg 74%
07:00 +1°C° 0 mm 6 mps 751 mmHg 72%
08:00 +2°C° 0 mm 6 mps 751 mmHg 67%
09:00 +3°C° 0 mm 7 mps 751 mmHg 63%
10:00 +4°C° 0 mm 7 mps 751 mmHg 59%
11:00 +4°C° 0.2 mm 7 mps 751 mmHg 64%
12:00 +4°C° 0.2 mm 7 mps 752 mmHg 70%
13:00 +4°C° 0.2 mm 7 mps 752 mmHg 76%
14:00 +4°C° 0.5 mm 6 mps 752 mmHg 77%
15:00 +4°C° 0.5 mm 6 mps 752 mmHg 79%
16:00 +5°C° 0.5 mm 5 mps 752 mmHg 80%
17:00 +4°C° 0.4 mm 4 mps 752 mmHg 80%
18:00 +4°C° 0.4 mm 4 mps 752 mmHg 81%
19:00 +3°C° 0.4 mm 3 mps 752 mmHg 81%
20:00 +3°C° 0 mm 3 mps 753 mmHg 82%
21:00 +2°C° 0 mm 3 mps 753 mmHg 84%
22:00 +1°C° 0 mm 4 mps 753 mmHg 85%
23:00 +1°C° 0 mm 4 mps 753 mmHg 83%

23 April, Friday

Time Temperature Precipitation Wind Pressure Humidity
00:00 +1°C° 0 mm 5 mps 753 mmHg 81%
01:00 +1°C° 0 mm 5 mps 753 mmHg 80%
02:00 0°C° 0 mm 5 mps 754 mmHg 80%
03:00 0°C° 0 mm 5 mps 754 mmHg 80%
04:00 -1°C° 0 mm 6 mps 754 mmHg 80%
05:00 -1°C° 0 mm 6 mps 755 mmHg 80%
06:00 +1°C° 0 mm 6 mps 755 mmHg 80%
07:00 +1°C° 0 mm 6 mps 756 mmHg 79%
08:00 +3°C° 0 mm 6 mps 756 mmHg 70%
09:00 +4°C° 0 mm 7 mps 756 mmHg 62%
10:00 +6°C° 0 mm 7 mps 757 mmHg 53%
11:00 +8°C° 0.1 mm 7 mps 757 mmHg 47%
12:00 +8°C° 0.1 mm 7 mps 757 mmHg 42%
13:00 +9°C° 0.1 mm 7 mps 757 mmHg 37%
14:00 +9°C° 0 mm 6 mps 757 mmHg 36%
15:00 +9°C° 0 mm 6 mps 757 mmHg 36%
16:00 +9°C° 0 mm 5 mps 758 mmHg 35%
17:00 +8°C° 0 mm 4 mps 758 mmHg 40%
18:00 +8°C° 0 mm 3 mps 758 mmHg 45%
19:00 +7°C° 0 mm 1 mps 758 mmHg 50%
20:00 +6°C° 0 mm 2 mps 758 mmHg 54%
21:00 +6°C° 0 mm 2 mps 758 mmHg 57%
22:00 +6°C° 0 mm 2 mps 758 mmHg 60%
23:00 +5°C° 0 mm 2 mps 757 mmHg 65%

24 April, Saturday

Time Temperature Precipitation Wind Pressure Humidity
00:00 +4°C° 0 mm 3 mps 757 mmHg 71%
01:00 +4°C° 0 mm 3 mps 757 mmHg 76%
02:00 +4°C° 0 mm 3 mps 757 mmHg 80%
03:00 +3°C° 0 mm 3 mps 757 mmHg 83%
04:00 +3°C° 0 mm 4 mps 757 mmHg 86%
05:00 +3°C° 0 mm 4 mps 757 mmHg 85%
06:00 +3°C° 0 mm 5 mps 757 mmHg 83%
07:00 +3°C° 0 mm 5 mps 757 mmHg 82%
08:00 +5°C° 0 mm 5 mps 757 mmHg 77%
09:00 +5°C° 0 mm 6 mps 757 mmHg 71%
10:00 +7°C° 0 mm 6 mps 757 mmHg 66%
11:00 +7°C° 0 mm 6 mps 757 mmHg 65%
12:00 +7°C° 0 mm 6 mps 757 mmHg 65%
13:00 +7°C° 0 mm 6 mps 757 mmHg 64%
14:00 +7°C° 0 mm 6 mps 757 mmHg 63%
15:00 +7°C° 0 mm 5 mps 757 mmHg 62%
16:00 +8°C° 0 mm 5 mps 757 mmHg 62%
17:00 +7°C° 0 mm 5 mps 757 mmHg 64%
18:00 +6°C° 0 mm 4 mps 758 mmHg 66%
19:00 +5°C° 0 mm 3 mps 758 mmHg 68%
20:00 +4°C° 0 mm 3 mps 758 mmHg 68%
21:00 +2°C° 0 mm 3 mps 759 mmHg 67%
22:00 +1°C° 0 mm 3 mps 759 mmHg 66%
23:00 0°C° 0 mm 3 mps 759 mmHg 66%

25 April, Sunday

Time Temperature Precipitation Wind Pressure Humidity
00:00 +1°C° 0 mm 2 mps 759 mmHg 67%
01:00 -1°C° 0 mm 2 mps 760 mmHg 67%
02:00 -1°C° 0 mm 2 mps 760 mmHg 69%
03:00 -1°C° 0 mm 2 mps 760 mmHg 71%
04:00 -2°C° 0 mm 2 mps 760 mmHg 72%
05:00 0°C° 0 mm 3 mps 760 mmHg 68%
06:00 +2°C° 0 mm 3 mps 761 mmHg 64%
07:00 +3°C° 0 mm 3 mps 761 mmHg 60%
08:00 +5°C° 0 mm 3 mps 761 mmHg 52%
09:00 +6°C° 0 mm 4 mps 761 mmHg 44%
10:00 +8°C° 0 mm 4 mps 761 mmHg 37%
11:00 +9°C° 0 mm 5 mps 761 mmHg 36%
12:00 +9°C° 0 mm 5 mps 761 mmHg 35%
13:00 +10°C° 0 mm 5 mps 761 mmHg 34%
14:00 +10°C° 0 mm 5 mps 761 mmHg 34%
15:00 +10°C° 0 mm 5 mps 761 mmHg 34%
16:00 +9°C° 0 mm 5 mps 761 mmHg 34%
17:00 +8°C° 0 mm 4 mps 761 mmHg 41%
18:00 +6°C° 0 mm 4 mps 761 mmHg 47%
19:00 +4°C° 0 mm 3 mps 761 mmHg 53%
20:00 +4°C° 0 mm 2 mps 761 mmHg 54%
21:00 +3°C° 0 mm 2 mps 761 mmHg 54%
22:00 +3°C° 0 mm 1 mps 761 mmHg 55%
23:00 +3°C° 0 mm 1 mps 761 mmHg 56%
Show more

We Need Your Consent

Meteoprog and our Service Providers may store and access personal data such as cookies, device identifiers or other similar technologies on your device and process such data to personalise content and ads, as well as provide social media features and to analyse the traffic.

  • Store and/or access information on your device

    Cookies, device identifiers or other information can be stored or accessed on your device for the purposes indicated above.

  • Personalised ads and content, ad and content measurement, audience insights, and products development

    Ads and content can be personalised based on a profile. More data can be added to better personalise ads and content. Ad and content performance can be measured. Insights about the audience who saw the ads and content can be derived. Such data can be used to develop or improve user’s experience, systems and software.

By clicking ‘I Agree’ you will allow the use of indicated cookies, device identifiers, web beacons or other similar technologies. Your settings can be changed in the browser on your device.

For certain purposes, legitimate interests may be relied on, rather than consent. You can read more about this in our Privacy and Cookie Policy.